Wetbulb
69.57 69.89 70.39 70.51 70.41 70.70 71.29 71.99 72.55 73.42 72.74 72.65 72.59 72.11 70.07 68.74 66.98 64.72 64.28 63.36 62.01 59.85
70.00 70.53 70.67 71.40 71.80 72.17 72.62 72.83 73.69 73.77 72.36 72.99 72.51 71.66 69.13 67.88 65.38 63.33 62.39 61.27 60.50 59.08
69.99 70.98 72.19 72.23 72.04 72.54 73.21 73.42 73.89 73.25 72.83 72.24 72.07 71.00 69.17 67.72 64.32 62.46 60.45 59.12 59.29 58.50
69.23 70.11 71.04 72.86 73.27 73.11 72.60 72.18 73.65 73.24 72.65 71.82 70.56 69.75 68.45 66.84 63.72 62.36 60.60 58.67 58.50 57.76
70.10 70.10 70.03 70.84 72.76 73.96 72.34 70.92 73.51 73.04 72.54 71.51 70.48 69.47 67.87 65.79 63.75 61.14 59.21 58.69 58.58 57.35
70.44 70.87 70.91 71.06 71.58 73.28 72.86 70.97 71.76 72.39 72.00 70.95 69.69 68.32 66.91 66.42 63.67 61.59 59.60 59.76 59.50 57.37
71.33 71.89 72.16 72.61 72.52 73.13 73.15 72.37 71.64 72.08 72.41 71.17 71.09 69.32 67.01 66.02 64.04 62.70 60.76 60.66 60.72 59.23
71.43 72.27 73.40 73.26 73.67 73.40 72.54 72.42 72.14 72.23 68.36 69.97 70.06 68.74 67.17 65.92 63.88 62.40 60.56 61.35 60.99 60.34
71.81 72.06 72.35 73.84 74.08 73.62 72.39 71.40 71.16 68.32 67.02 69.16 70.38 67.00 66.73 66.47 63.91 62.76 61.36 59.78 60.24 61.02
71.83 72.13 72.69 73.70 73.97 73.48 72.42 70.38 69.00 66.66 66.35 66.61 68.30 66.47 66.64 67.24 64.35 62.71 61.06 60.88 60.79 61.19
71.55 72.15 73.22 73.62 73.79 73.88 73.35 70.42 68.73 66.14 66.24 66.14 66.97 65.31 65.07 67.22 64.62 63.30 60.51 61.65 60.02 63.26
71.65 72.16 72.99 73.07 73.59 74.13 73.80 71.74 69.09 66.84 66.28 66.75 67.20 64.39 63.51 65.20 62.95 61.73 60.86 61.31 60.55 62.43
72.52 72.56 72.86 73.33 73.62 74.76 72.82 69.09 67.76 66.52 67.47 66.34 67.74 63.20 61.72 63.34 62.01 59.89 59.88 60.88 59.78 60.69
72.19 72.40 72.46 71.78 72.23 69.75 66.79 66.40 66.20 65.93 66.72 67.11 66.97 65.71 60.05 60.67 62.59 60.97 59.42 58.84 59.33 60.36
MSLP
1014.73 1015.16 1015.54 1015.43 1015.58 1015.96 1016.27 1016.25 1016.25 1016.54 1016.69 1016.86 1016.91 1017.11 1017.34 1017.72 1018.10 1018.38 1018.78 1019.07 1019.14 1019.32
1014.41 1014.73 1014.91 1015.04 1015.50 1015.73 1016.10 1016.22 1016.06 1015.76 1016.35 1016.47 1016.44 1016.66 1017.36 1017.53 1017.76 1018.24 1018.67 1018.95 1019.07 1019.46
1013.75 1014.12 1014.55 1014.83 1014.98 1015.25 1015.54 1015.61 1015.63 1015.91 1016.14 1016.25 1016.74 1017.27 1017.59 1017.66 1018.02 1018.34 1018.74 1019.03 1019.12 1019.33
1013.12 1013.56 1014.00 1014.31 1014.43 1014.76 1014.99 1015.29 1015.30 1015.46 1015.72 1016.03 1016.70 1017.40 1017.98 1018.21 1018.04 1018.41 1018.83 1019.29 1019.54 1019.83
1012.50 1013.06 1013.46 1013.73 1013.80 1014.19 1014.45 1014.66 1014.75 1014.94 1015.48 1016.16 1016.74 1017.30 1018.02 1018.35 1018.03 1018.16 1018.81 1019.15 1019.60 1020.10
1011.95 1012.36 1012.55 1012.83 1013.24 1013.64 1013.88 1014.08 1014.50 1014.94 1015.32 1015.94 1016.27 1016.54 1017.30 1018.00 1018.30 1018.24 1018.55 1018.97 1019.51 1019.90
1011.01 1011.23 1011.54 1011.99 1012.60 1012.95 1013.12 1013.52 1013.94 1014.36 1014.94 1015.48 1016.26 1016.97 1017.61 1017.74 1018.31 1018.43 1018.59 1018.77 1019.13 1019.65
1009.83 1010.46 1010.95 1011.41 1011.79 1012.11 1012.51 1012.82 1013.34 1013.99 1014.93 1015.67 1016.49 1016.76 1017.72 1018.26 1018.12 1018.46 1018.69 1018.75 1019.21 1019.60
1009.47 1009.81 1010.23 1010.74 1011.02 1011.45 1011.84 1012.35 1012.95 1013.73 1014.63 1015.36 1016.19 1016.39 1016.28 1017.97 1018.36 1018.37 1018.53 1018.71 1019.22 1019.56
1009.03 1009.33 1009.77 1010.18 1010.62 1010.83 1011.09 1011.85 1012.45 1013.44 1014.22 1015.20 1015.64 1015.92 1016.39 1017.08 1018.08 1018.32 1018.16 1018.66 1018.97 1019.42
1008.44 1008.88 1009.29 1009.69 1009.92 1010.14 1010.50 1011.05 1011.83 1012.97 1013.88 1014.96 1015.30 1015.04 1016.00 1016.79 1017.47 1017.84 1017.91 1018.33 1018.67 1019.07
1008.03 1008.41 1008.80 1009.00 1009.07 1009.29 1009.88 1010.65 1011.49 1012.29 1013.26 1014.03 1014.68 1013.86 1015.04 1016.29 1016.47 1017.14 1017.75 1018.28 1018.61 1019.03
1007.73 1007.92 1008.13 1008.31 1008.54 1008.88 1009.50 1010.40 1011.17 1012.18 1012.93 1013.06 1011.15 1013.81 1012.83 1014.55 1016.18 1017.13 1017.64 1018.08 1018.58 1018.97
1007.83 1008.03 1008.45 1008.69 1008.83 1009.16 1009.73 1010.54 1011.18 1011.82 1012.79 1013.35 1013.45 1014.17 1014.17 1013.80 1015.17 1015.99 1017.48 1017.94 1018.48 1019.01
Wind_Speed
7 5 5 6 5 4 4 3 4 4 5 5 5 5 5 4 3 4 3 4 3 2
8 8 8 7 4 3 4 2 5 7 6 6 8 8 6 5 5 4 3 3 4 3
10 9 6 5 7 5 5 5 7 6 7 8 5 5 5 5 4 5 3 2 4 3
9 9 7 8 7 6 5 6 7 8 8 8 6 5 4 4 6 6 5 4 4 4
8 7 9 10 10 7 8 7 9 9 8 7 7 7 7 6 6 8 6 6 5 4
10 10 12 11 8 9 9 10 9 8 7 9 9 10 8 7 7 6 6 7 6 7
11 13 12 10 10 11 12 11 10 10 7 8 6 6 5 6 5 4 6 7 6 6
13 10 9 10 12 12 11 11 10 9 6 8 7 6 4 4 7 6 6 5 5 5
9 9 11 11 12 11 11 10 9 8 9 9 4 10 14 8 6 7 7 7 5 5
8 11 11 10 11 12 13 9 10 9 11 10 7 11 14 14 7 7 7 7 7 6
9 10 9 11 12 12 11 12 10 10 10 9 5 7 11 15 8 7 7 8 8 7
8 9 10 13 14 12 11 9 9 9 12 12 8 17 16 12 8 7 8 7 7 7
7 10 12 11 10 7 6 5 7 9 9 8 7 15 21 18 6 7 6 5 5 10
3 3 2 3 2 5 8 9 10 10 6 7 9 3 9 19 10 8 6 5 5 5
Wind_Direction
206 205 206 210 199 203 202 208 166 171 182 190 181 163 153 151 140 126 119 109 83 79
201 206 215 220 194 201 194 195 191 189 176 184 192 172 167 155 151 133 127 124 112 98
202 207 206 190 215 201 190 191 200 181 188 198 179 158 184 147 134 134 130 128 124 111
200 197 193 206 220 198 187 193 205 196 194 193 162 155 142 159 158 143 130 113 121 97
198 175 196 208 213 183 199 198 205 202 201 166 157 160 188 180 172 149 151 147 132 132
192 189 206 213 201 187 196 201 204 201 196 165 178 171 166 183 176 159 154 152 150 155
204 203 206 202 186 194 199 199 201 204 186 172 170 134 172 154 163 162 156 160 166 170
215 206 192 187 192 200 202 203 201 196 124 109 135 143 130 185 173 169 163 154 149 166
203 193 194 192 198 196 206 197 185 168 137 136 140 166 166 191 188 180 169 152 163 165
196 201 198 194 195 203 206 186 188 154 146 127 141 151 172 193 197 186 163 163 158 162
189 197 183 187 200 207 202 195 186 162 158 133 133 145 215 195 193 175 167 171 166 161
186 184 183 198 205 206 203 185 177 170 158 168 174 193 197 191 177 165 166 167 161 164
189 190 200 209 204 194 179 136 124 143 163 153 191 201 172 173 167 159 157 144 162 181
124 168 108 114 122 120 128 130 132 133 151 197 208 261 183 165 162 157 159 156 176 198